Weather History for Pendleton, OR

Change the Weather History Date:

Thursday, August 15, 2013

  Actual Average Record
Temperature  
Mean Temperature 76 °F 72 °F  
Max Temperature 94 °F 87 °F 109 °F (1901)
Min Temperature 58 °F 57 °F 38 °F (1910)
Degree Days  
Heating Degree Days 0 0  
Month to date heating degree days 0 0  
Since 1 June heating degree days 80 94  
Since 1 July heating degree days 0 11  
Cooling Degree Days 11 8  
Month to date cooling degree days 141 129  
Year to date cooling degree days 595 477  
Since 1 June cooling degree days 564 454  
Growing Degree Days 28 (Base 50)    
Moisture  
Dew Point 45 °F    
Average Humidity 35    
Maximum Humidity 53    
Minimum Humidity 17    
Precipitation  
Precipitation 0.00 in 0.02 in 0.73 in (1978)
Month to date precipitation 0.22 0.17  
Year to date precipitation 5.19 7.88  
Snow  
Snow 0.00 in 0.00 in 0.00 in (2002)
Month to date snowfall T 0.0  
Year to date snowfall 0.2 7.7  
Since 1 July snowfall T 0.0  
Snow Depth 0.00 in    
Sea Level Pressure  
Sea Level Pressure 29.86 in    
Wind  
Wind Speed 9 mph (WSW)    
Max Wind Speed 17 mph    
Max Gust Speed 22 mph    
Visibility 10 miles    
Events      
T = Trace of Precipitation, MM = Missing Value Source: NWS Daily Summary

Daily Weather History Graph

Daily Weather History Graph

Search for Another Location

Airport:

Trip Planner

Search our weather history database for the weather conditions in past years. The results will help you decide how hot, cold, wet, or windy it might be!

Date:

Astronomy

Aug. 15, 2013 Rise Set
Actual Time 5:55 AM PDT 8:02 PM PDT
Civil Twilight 5:23 AM PDT 8:34 PM PDT
Nautical Twilight 4:43 AM PDT 9:14 PM PDT
Astronomical Twilight 3:58 AM PDT 9:58 PM PDT
Moon 3:30 PM PDT (8/15) 12:04 AM PDT (8/15)
Length of Visible Light 15h 11m
Length of Day
14h 06m
Waxing Gibbous, 65% of the Moon is Illuminated
Aug 15
Waxing Gibbous
Aug 20
Full
Aug 28
Last Quarter
Sep 5
New
Sep 12
First Quarter

Hourly Weather History & Observations

Time (PDT) Temp. Dew Point Humidity Pressure Visibility Wind Dir Wind Speed Gust Speed Precip Events Conditions
12:53 AM 71.1 °F 44.1 °F 38% 29.87 in 10.0 mi South 6.9 mph - N/A   Clear
1:53 AM 69.1 °F 44.1 °F 40% 29.88 in 10.0 mi SSE 5.8 mph - N/A   Clear
2:53 AM 63.0 °F 44.1 °F 50% 29.88 in 10.0 mi ESE 8.1 mph - N/A   Clear
3:53 AM 64.9 °F 44.1 °F 47% 29.88 in 9.0 mi SSE 6.9 mph - N/A   Clear
4:53 AM 63.0 °F 43.0 °F 48% 29.89 in 9.0 mi SSE 6.9 mph - N/A   Clear
5:53 AM 62.1 °F 44.1 °F 52% 29.90 in 8.0 mi ESE 6.9 mph - N/A   Clear
6:53 AM 63.0 °F 44.1 °F 50% 29.90 in 10.0 mi SE 9.2 mph - N/A   Clear
7:53 AM 68.0 °F 45.0 °F 43% 29.91 in 10.0 mi SSE 8.1 mph - N/A   Clear
8:53 AM 73.0 °F 45.0 °F 37% 29.90 in 10.0 mi SSE 5.8 mph - N/A   Clear
9:53 AM 80.1 °F 45.0 °F 29% 29.89 in 10.0 mi West 8.1 mph - N/A   Clear
10:53 AM 82.9 °F 45.0 °F 26% 29.88 in 10.0 mi West 8.1 mph - N/A   Clear
11:53 AM 86.0 °F 45.0 °F 24% 29.86 in 10.0 mi North - - N/A   Clear
12:53 PM 88.0 °F 46.0 °F 23% 29.84 in 10.0 mi NNW 8.1 mph - N/A   Clear
1:53 PM 91.0 °F 46.0 °F 21% 29.83 in 10.0 mi WNW 4.6 mph - N/A   Clear
2:53 PM 91.9 °F 46.0 °F 21% 29.82 in 10.0 mi NNW 8.1 mph - N/A   Clear
3:53 PM 91.9 °F 45.0 °F 20% 29.81 in 10.0 mi WNW 9.2 mph - N/A   Clear
4:53 PM 93.9 °F 43.0 °F 17% 29.80 in 10.0 mi NW 13.8 mph - N/A   Clear
5:53 PM 91.0 °F 44.1 °F 20% 29.79 in 10.0 mi WNW 17.3 mph - N/A   Clear
6:53 PM 89.1 °F 44.1 °F 21% 29.80 in 10.0 mi NW 9.2 mph - N/A   Clear
7:53 PM 81.0 °F 43.0 °F 26% 29.82 in 10.0 mi WNW 9.2 mph - N/A   Clear
8:53 PM 77.0 °F 46.0 °F 33% 29.85 in 10.0 mi West 10.4 mph - N/A   Clear
10:53 PM 73.9 °F 53.1 °F 48% 29.88 in 10.0 mi West 12.7 mph - N/A   Clear
11:53 PM 72.0 °F 53.1 °F 51% 29.91 in 10.0 mi South 5.8 mph - N/A   Clear